Volver al catálogo

IRIDIUM 138

ActivoComunicacionesPO
NORAD 43071·PAYLOAD·🇺🇸 United States

Lanzado Dec 23, 2017 desde Vandenberg Space Force Base

Loading…

Próximos Pases (próximas 24 horas)

TLE

ActualizadoSource: CelesTrak SupGP

Época: Sep 14, 2026, 08:45 UTC

1 43071C 17083B   26257.36493056  .00000749  00000+0  26769-3 0  2571
2 43071  86.3927 284.4434 0002485  93.8226  29.2848 14.34215433    14

Sigue IRIDIUM 138 en tiempo real con AllMySat

Download on the App Store